Weather in Debin

Russia / Magadan District     62°20′21″N   150°45′57″E
temp.,
°C
wind,
m/s
gust,
m/s
humid.,
%
clouds,
%
prec.,
mm/h
press.,
hPa
HPBL,
m
9 march, tue
tue923:00−33sw12840 0.0 100819
02:00−34sw12810 0.0 100819
05:00−35sw11802 0.0 100919
08:00−35sw11770 0.0 100919
11:00−29sw11690 0.0 100893
14:00−26w11674 0.0 1007249
17:00−27nne01842 0.0 100719
20:00−32sw11930 0.0 101019
10 march, wed
wed1023:00−33sw11900 0.0 101219
02:00−33sw11840 0.0 101319
05:00−33ssw11800 0.0 101519
08:00−33ssw12770 0.0 101619
11:00−26sw11730 0.0 1014109
14:00−22sw12710 0.0 1012272
17:00−22ssw01820 0.0 101220
20:00−25ssw22780 0.0 101421
11 march, thu
thu1123:00−26ssw22730 0.0 101321
02:00−27ssw22740 0.0 101221
05:00−28sw227415 0.0 101221
08:00−27sw127271 0.0 101220
11:00−22w116982 0.0 101193
14:00−19wsw1266100 0.0 1010259
17:00−19nw1178100 0.0 100920
20:00−21wsw1179100 0.0 101020
12 march, fri
fri1223:00−21wsw1178100 0.0 101020
02:00−22w1178100 0.0 100920
05:00−22nw0180100 0.0 100820
08:00−23w0082100 0.0 100820
11:00−20sse0078100 0.0 1007101
14:00−19nne016999 0.0 1006306
17:00−21sse1183100 0.0 100620
20:00−25s1188100 0.0 100720
13 march, sat
sat1323:00−25wsw0097100 0.0 100820
02:00−25nnw00100100 0.0 100820
05:00−25n01100100 0.1 100920
08:00−24nne00100100 0.1 101020
11:00−22n1195100 0.1 1009168
14:00−19n1283100 0.0 1008490
17:00−19ne0190100 0.1 100830
20:00−24ssw11100100 0.0 101020